TOPSWRTT 000
TTAA00 KICT 240703

Wichita AWIPS Roundup
National Weather Service Wichita KS
200 AM CDT FRI OCT 24 2014

....Central Kansas....
  
CITY           SKY/WX    TMP DP  RH WIND       PRES   REMARKS
RUSSELL        CLEAR     60  57  89 S14       30.03S                  
SALINA         CLEAR     59  57  93 S7        30.05S FOG              
GREAT BEND     CLEAR     57  54  88 S6        30.06S                  
ELLSWORTH      CLEAR     61  59  94 S5        30.04S                  
MCPHERSON      CLEAR     57  57 100 S6        30.06R                  
HAYS           CLEAR     57  52  82 S6        30.05S                  

....South Central Kansas....
  
CITY           SKY/WX    TMP DP  RH WIND       PRES   REMARKS
HUTCHINSON     CLEAR     60  57  89 S6        30.06F                  
NEWTON         CLEAR     57  54  88 SE7       30.09S                  
KINGMAN        CLEAR     61  61 100 SE8       30.06S FOG              
WICHITA (ICT)  PTCLDY    61  57  87 S9        30.06F                  
JABARA ARPT    CLEAR     58  57  97 S7        30.07S                  
MCCONNELL AFB  CLEAR     61  61 100 SE10      30.08S                  
EL DORADO      CLOUDY    61  59  94 S7        30.08S                  
HARPER           N/A     59  57  94 CALM      30.09F                  
WELLINGTON     NOT AVBL                                               
WINFIELD       CLEAR     59  57  93 SE6       30.09S                  
 
....Southeast Kansas....
  
CITY           SKY/WX    TMP DP  RH WIND       PRES   REMARKS
EUREKA         CLOUDY    59  57  94 S6        30.08F FOG              
CHANUTE        MOCLDY    55  54  96 SE6       30.11R FOG              
PARSONS        MOCLDY    55  54  96 CALM      30.12R                  
COFFEYVILLE    PTCLDY    54  53  97 SE3       30.10F                  
INDEPENDENCE   PTCLDY    54  52  94 CALM      30.10S FOG              
FORT SCOTT     CLEAR     57  55  94 SW6       30.10R                  
PITTSBURG      PTCLDY    56  56 100 SW5       30.11S FOG              

....Western Kansas....
  
CITY           SKY/WX    TMP DP  RH WIND       PRES   REMARKS
GOODLAND       PTCLDY    57  51  80 SW16      30.08R                  
HILL CITY      CLEAR     59  55  87 W7        30.04R                  
LIBERAL        CLEAR     57  52  82 SW7       30.11S                  
GARDEN CITY    CLEAR     55  54  96 S6        30.07F FOG              
DODGE CITY     CLEAR     61  57  87 SW12      30.07S                  
PRATT          CLEAR     57  55  94 S3        30.07S FOG              
MEDICINE LODGE   N/A     61  59  93 E6        30.06S                  

....Northeast Kansas....
  
CITY           SKY/WX    TMP DP  RH WIND       PRES   REMARKS
CONCORDIA      CLEAR     61  59  93 S9        30.02F FOG              
TOPEKA         MOCLDY    59  58  96 S8        30.07S FOG              
MANHATTAN      FOG       54  54 100 CALM      30.05S VSB 1/4          
LAWRENCE       MOCLDY    54  53  97 S3        30.08S FOG              
OLATHE         CLOUDY    57  57 100 S8        30.08F FOG              
EMPORIA        CLOUDY    57  57 100 S14       30.08S FOG              

....Oklahoma....
  
CITY           SKY/WX    TMP DP  RH WIND       PRES   REMARKS
GAGE           CLEAR     60  58  92 CALM      30.09S                  
PONCA CITY     CLEAR     60  57  89 SE9       30.08R                  
BARTLESVILLE   MOCLDY    57  56  96 CALM      30.12R                  
TULSA          MOCLDY    61  55  81 SE6       30.10R                  
OKLAHOMA CITY  PTCLDY    60  56  86 S5        30.09S                  

Note: "fair" indicates few or no clouds below 12,000 feet with no
significant weather and/or obstructions to visibility.
  

USA.gov is the U.S. government's official web portal to all federal, state and local government web resources and services.